Regional Weather Roundup
Issued by NWS Northern Indiana

Home | Current Version | Previous Version | Text Only | Print | Product List | Glossary Off
Versions: 1 2 3 4 5 6 7 8 9 10 11 12 13 14 15 16 17 18 19 20 21 22 23 24 25 26 27 28 29 30 31 32 33 34 35 36 37 38 39 40 41 42 43 44 45 46 47 48 49 50

000
ASUS43 KIWX 012010
RWRIWX

KIWX WEATHER ROUNDUP
NATIONAL WEATHER SERVICE NORTHERN INDIANA
400 PM EDT FRI AUG 01 2014

NOTE: "FAIR" INDICATES FEW OR NO CLOUDS BELOW 12,000 FEET WITH NO
SIGNIFICANT WEATHER AND/OR OBSTRUCTIONS TO VISIBILITY.

* THESE STATIONS ARE NOT UNDER NWS QUALITY CONTROL. THEY ALSO MAY NOT
  REPORT WEATHER SUCH AS PRECIPITATION OR FOG.

INZ001>027-012100-
NORTHERN INDIANA

CITY           SKY/WX    TMP DP  RH WIND       PRES   REMARKS
GARY*          LGT RAIN  73  61  64 CALM      30.10R
MICHIGAN CITY* LGT RAIN  68  55  64 S7G17     30.12R
LAPORTE*       CLOUDY    64  58  80 SW7       30.14R
KNOX*          PTSUNNY   65  58  78 E3        30.11R
SOUTH BEND     CLOUDY    72  59  63 S8        30.12S
ELKHART*       LGT RAIN  66  59  77 CALM      30.12
GOSHEN         CLOUDY    72  57  59 NW8       30.10F
MONTICELLO*    MOSUNNY   78  60  54 CALM      30.07S
LOGANSPORT*    SUNNY     79  54  41 CALM      30.09F
ROCHESTER*     MOSUNNY   82  55  39 N15       30.11R
WARSAW*        MOSUNNY   72  55  56 N9        30.11S
ANGOLA*        SUNNY     81  61  50 SW7       30.10S
FORT WAYNE     MOSUNNY   81  58  45 SE6       30.10S
HUNTINGTON*    SUNNY     80  55  42 SW3       30.09S
PERU/GRISSOM   MOSUNNY   80  61  51 VRB1      30.08F
MARION*        MOSUNNY   80  57  46 SW5       30.10S

$$
INZ028>050-012100-
CENTRAL INDIANA

CITY           SKY/WX    TMP DP  RH WIND       PRES   REMARKS
LAFAYETTE      MOSUNNY   75  58  55 S9G18     30.06F
KOKOMO*        SUNNY     81  61  50 E6        30.08S
MUNCIE*        PTSUNNY   78  60  53 N5        30.09F
INDIANAPOLIS   MOSUNNY   81  59  47 E9        30.07F

$$
MIZ043>046-050>051-056>058-064>065-071>073-077>080-012100-
SOUTHWEST LOWER MICHIGAN

CITY           SKY/WX    TMP DP  RH WIND       PRES   REMARKS
BATTLE CREEK   PTSUNNY   78  59  51 W10       30.09S
BENTON HARBOR  MOSUNNY   75  58  55 CALM      30.10R
COLDWATER*     PTSUNNY   77  61  58 W5        30.10S
HILLSDALE*     PTSUNNY   80  59  47 SW5       30.11S
HOLLAND        SUNNY     81  61  50 W9        30.09S HAZE
GRAND RAPIDS   MOSUNNY   84  57  39 W5        30.07S
KALAMAZOO      PTSUNNY   78  58  49 SW9       30.09S
STURGIS*       LGT RAIN  70  64  83 SW7       30.11S
THREE RIVERS*  FAIR      74  61  65 SW8       30.11S

$$
OHZ001>008-015>018-024>025-012100-
NORTHWEST OHIO

CITY           SKY/WX    TMP DP  RH WIND       PRES   REMARKS
WAUSEON*       FAIR      82  59  44 VRB5      30.08F
DEFIANCE       MOSUNNY   81  59  47 S5        30.09S
FINDLAY        SUNNY     83  59  44 CALM      30.08F
TOLEDO EXPRESS MOSUNNY   83  58  42 NW9       30.09R
TOLEDO METCALF MOSUNNY   84  58  40 S9        30.08F
LIMA           MOSUNNY   83  60  45 VRB5      30.10F

$$
&&


USA.gov is the U.S. government's official web portal to all federal, state and local government web resources and services.